Regional Weather Roundup
Issued by NWS

Home | Current Version | Previous Version | Graphics & Text | Print | Product List | Glossary On
Versions: 1 2 3 4 5 6 7 8 9 10 11 12 13 14 15 16 17 18 19 20 21 22 23 24 25 26 27 28 29 30 31 32 33 34 35 36 37 38 39 40 41 42 43 44 45 46 47 48 49 50
000
ASUS43 KMPX 242210
RWRMN
WEATHER ROUNDUP FOR MINNESOTA
NATIONAL WEATHER SERVICE TWIN CITIES/CHANHASSEN MN
500 PM CDT TUE MAY 24 2016


NOTE: "FAIR" INDICATES FEW OR NO CLOUDS BELOW 12,000 FEET WITH NO
SIGNIFICANT WEATHER AND/OR OBSTRUCTIONS TO VISIBILITY. N/A MEANS
CURRENT SKY AND/OR WEATHER CONDITIONS ARE NOT AVAILABLE.

MNZ060>063-068>070-242300-
   Twin Cities Metro

CITY           SKY/WX    TMP DP  RH WIND       PRES   REMARKS
TWIN CITIES    MOSUNNY   84  48  28 VRB3      29.88S
ST PAUL        SUNNY     84  52  33 N9        29.88S
CRYSTAL        SUNNY     84  47  27 NW7       29.88R
BLAINE         MOSUNNY   82  50  32 N7        29.88F
EDEN PRAIRIE   SUNNY     85  51  31 N6        29.87S
SOUTH ST PAUL  MOSUNNY   85  49  28 NW7       29.88S
LAKE ELMO      FAIR      81  54  39 N5        29.90S
$$
MNZ001>005-007-008-013>017-022>024-027-028-242300-
   Northwest Minnesota

CITY           SKY/WX    TMP DP  RH WIND       PRES   REMARKS
BEMIDJI        MOSUNNY   79  48  33 NW12G18   29.88S
HALLOCK        SUNNY     77  48  36 SE5       29.86S
ROSEAU         SUNNY     77  54  44 W6        29.88S
WARROAD        MOSUNNY   72  52  49 E7        29.89S
THIEF RVR FALL SUNNY     75  50  41 W7        29.90S
CROOKSTON      SUNNY     77  48  36 NW6       29.88S
FOSSTON        SUNNY     79  45  29 CALM      29.89F
DETROIT LAKES  MOSUNNY   79  45  29 CALM      29.88F
MOORHEAD       SUNNY     82  46  28 NE7       29.84F
PARK RAPIDS    SUNNY     81  50  33 NW9       29.87F
MAHNOMEN       FAIR      77  51  40 N7        29.87S
$$
MNZ006-009>011-018-025>026-242300-
   North Central Minnesota

CITY           SKY/WX    TMP DP  RH WIND       PRES   REMARKS
BAUDETTE       SUNNY     76  48  37 N13       29.88R
FLAG ISLAND    MOSUNNY   70  46  43 N9        29.89R
INTL FALLS     MOSUNNY   80  42  25 W12G21    29.85S
WASKISH        SUNNY     77  52  41 SW9       29.88S
BIG FORK       MOSUNNY   79  45  29 W5        29.88S
LONGVILLE      SUNNY     73  55  53 CALM      29.89S
CRANE LAKE     MOSUNNY   75  48  38 NW5       29.88S
ORR            SUNNY     81  39  22 SW3       29.84F
COOK           MOSUNNY   79  46  31 W10       29.88S
WALKER         FAIR      77  52  40 W6        29.88S
$$
MNZ012-019>021-037-242300-
   Northeast Minnesota

CITY           SKY/WX    TMP DP  RH WIND       PRES   REMARKS
DULUTH         MOSUNNY   69  57  65 E12       29.91S
ELY            MOSUNNY   73  54  49 E3        29.89F
HIBBING        SUNNY     77  44  30 W8        29.88S
EVELETH        SUNNY     77  45  31 SW8       29.89S
DULUTH HARBOR  FOG       54  52  94 N7        29.92S VSB 1/4
TWO HARBORS      N/A     70  61  73 E12       29.90R
SILVER BAY     PTSUNNY   61  57  88 NE9G16    29.92R
GRAND MARAIS     N/A     56  50  80 NE6       29.94F
G MARAIS ARPRT CLOUDY    63  52  67 E9        29.96F
$$
MNZ029>031-032-039>041-046>048-054>057-064-242300-
   West Central Minnesota

CITY           SKY/WX    TMP DP  RH WIND       PRES   REMARKS
FERGUS FALLS   MOSUNNY   82  48  30 CALM      29.79F
WHEATON        SUNNY     88  48  25 SW10G17   29.84S
MORRIS         MOSUNNY   86  48  26 SW12      29.83S
ALEXANDRIA     MOSUNNY   80  49  33 S9        29.87S
ELBOW LAKE     FAIR      83  49  30 W13G18    29.84S
WADENA         MOSUNNY   81  48  32 NW5       29.86F
GLENWOOD       SUNNY     82  52  34 SE7       29.87S
APPLETON       MOSUNNY   86  45  23 W3G9      29.83R
BENSON         MOSUNNY   86  43  22 SW9       29.84S
ORTONVILLE     SUNNY     86  43  22 W9G18     29.83F
MADISON        SUNNY     84  39  20 SW9       29.84S
WILLMAR        FAIR      73  63  68 NE10G20   29.89S THUNDER
$$
MNZ033>034-036-042>043-049>051-058-059-242300-
   Central Minnesota

CITY           SKY/WX    TMP DP  RH WIND       PRES   REMARKS
ST CLOUD       MOSUNNY   78  58  49 S8        29.88S
SAUK CENTRE    MOCLDY    77  58  50 E6        29.87S
PAYNESVILLE    TSTM      75  57  53 S8        29.91R
AITKIN         MOSUNNY   81  43  26 CALM      29.87S
PINE RIVER     MOSUNNY   79  54  41 CALM      29.91S
BRAINERD       MOSUNNY   80  50  34 S8        29.88F
STAPLES        MOSUNNY   82  46  28 W6        29.86S
LONG PRAIRIE   FAIR      77  52  41 S3        29.88S
LITTLE FALLS   SUNNY     81  48  32 E3        29.87F
LITCHFIELD     CLOUDY    79  63  57 NE5       29.90R
BUFFALO        SUNNY     78  52  40 CALM      29.90R
MAPLE LAKE     MOSUNNY   77  60  56 CALM      29.90R
HUTCHINSON     SUNNY     79  64  59 NE9       29.89R
$$
MNZ037-044-045-052-053-242300-
   East Central Minnesota

CITY           SKY/WX    TMP DP  RH WIND       PRES   REMARKS
PRINCETON      SUNNY     81  57  44 CALM      29.89R
MORA           SUNNY     77  46  33 CALM      29.90S
CAMBRIDGE        N/A     82  59  44 CALM      29.87S
RUSH CITY      SUNNY     80  56  43 NW3       29.89S
MOOSE LAKE     SUNNY     79  54  41 CALM      29.87S
HINCKLEY       FAIR      81  55  41 CALM      29.88S
CLOQUET        PTSUNNY   73  55  53 SE7       29.89S
MCGREGOR       MOSUNNY   81  50  34 SW5       29.88F
$$
MNZ071>073-080-081-089-090-097-098-242300-
   Southwest Minnesota

CITY           SKY/WX    TMP DP  RH WIND       PRES   REMARKS
MONTEVIDEO     SUNNY     91  43  18 W7        29.85S
GRANITE FALLS  MOSUNNY   89  41  19 SW5       29.85S
CANBY          SUNNY     87  42  20 W5        29.86S
MARSHALL       SUNNY     87  41  19 W13G18    29.86R
REDWOOD FALLS  MOSUNNY   84  55  36 S7        29.85R
OLIVIA         MOSUNNY   79  54  41 E9          N/A  THUNDER
PIPESTONE      SUNNY     84  32  15 N7        29.89S
WINDOM         SUNNY     82  55  39 CALM      29.89S
WORTHINGTON    SUNNY     80  60  50 S13       29.90F
JACKSON        SUNNY     82  54  36 S5        29.91S
TRACY          SUNNY     88  41  19 NW7       29.87S
SLAYTON        MOSUNNY   84  41  22 S8        29.89F
$$
MNZ065>067-074>077-082>085-091>093-242300-
   South Central Minnesota

CITY           SKY/WX    TMP DP  RH WIND       PRES   REMARKS
MANKATO        SUNNY     86  48  26 W8G17     29.88S
NEW ULM        MOSUNNY   82  54  36 S8        29.86S
ST JAMES       MOSUNNY   79  52  38 SW7       29.88F
FAIRMONT       SUNNY     82  52  34 SE7       29.89F
GLENCOE        SUNNY     81  61  50 NE3       29.87R
FARIBAULT      SUNNY     84  52  32 S7        29.89S
OWATONNA       MOSUNNY   82  54  36 S12       29.89F
WASECA         PTSUNNY   82  46  28 S8        29.90S
ALBERT LEA     CLOUDY    81  55  41 SE10      29.91F
$$
MNZ078>079-086>088-094>096-242300-
   Southeast Minnesota

CITY           SKY/WX    TMP DP  RH WIND       PRES   REMARKS
ROCHESTER      SUNNY     79  58  48 SW8       29.93S
RED WING       MOSUNNY   81  57  44 SE3       29.88R
STANTON        MOSUNNY   84  52  33 W5        29.88R
DODGE CENTER   SUNNY     82  52  34 SW10G20   29.92S
WINONA         SUNNY     81  54  39 CALM      29.91S
AUSTIN         SUNNY     79  61  53 S6        29.93S
PRESTON        MOSUNNY   79  57  46 S6        29.94S
$$
ABBREVIATIONS USED IN REMARKS
   TC - TEMPERATURES IN CELSIUS
  WCI - WIND CHILL INDEX
   HX - HEAT INDEX
  VSB - VISIBILITY
$$




USA.gov is the U.S. government's official web portal to all federal, state and local government web resources and services.